Theta_e
309 313 314 315 315 314 313 311 312 313 312 312 311 312 312 311 311 311 311 310 308 309 310 311 310 310 310 310 309 309 309 309 308 309 310 310 311 311 311 311 312 312 314 316 316 316 315 314 314 314 314 314 314 314 314 314 314 314 314 315 315 314 314 314 314 314 313 313 313 312 312 312 312 311 311 310 309 308 308 308 307 306 305 305 305 304
309 313 314 315 314 313 313 312 311 311 311 311 312 312 311 311 310 310 311 310 308 308 310 311 311 310 309 310 309 309 309 309 309 309 310 311 311 312 312 312 313 313 314 314 314 315 315 314 315 314 314 314 314 314 314 314 314 314 314 314 314 314 313 313 314 314 314 314 314 313 313 313 312 312 311 311 310 310 309 308 307 306 305 305 304 304
311 312 312 312 311 312 314 312 310 310 311 312 312 312 312 311 311 311 311 311 310 310 312 312 311 309 310 310 310 309 310 309 310 310 311 311 311 311 312 312 313 313 313 313 314 315 315 315 314 314 314 314 314 314 314 314 314 314 314 314 314 313 314 314 313 313 314 314 313 313 313 312 312 312 311 311 311 310 309 308 307 306 305 304 304 304
314 315 312 308 309 311 313 312 311 311 311 312 312 312 312 311 312 312 312 313 312 310 311 311 310 309 310 310 310 309 309 310 310 311 311 311 311 312 313 313 311 312 313 314 315 316 315 315 315 315 314 314 314 313 314 314 314 314 314 314 314 314 314 314 314 314 313 313 312 312 312 311 311 311 311 310 310 309 308 308 307 306 306 305 304 303
315 316 310 308 310 310 311 311 312 312 311 312 312 312 312 311 312 311 312 313 313 313 313 312 311 313 314 313 314 312 309 309 309 309 310 311 314 315 312 312 311 312 314 315 316 316 316 315 315 314 314 313 313 314 314 314 314 314 314 313 313 313 313 313 313 313 312 312 311 311 310 310 310 309 309 309 310 309 308 308 308 307 307 306 305 304
312 311 309 311 312 311 311 311 312 314 312 312 313 312 311 312 311 311 313 311 312 317 315 312 314 317 316 316 319 318 313 313 310 309 309 310 314 314 310 311 313 315 315 316 316 316 316 315 314 314 313 313 314 314 314 313 313 313 312 313 312 312 313 313 312 312 312 311 311 311 310 310 310 310 310 310 310 310 309 309 309 308 307 307 306 304
312 311 310 313 314 313 312 311 313 313 311 313 315 316 312 310 312 312 312 311 315 319 313 312 317 317 315 316 320 319 317 319 315 313 311 309 311 311 311 314 316 316 316 316 316 316 315 313 313 314 313 314 314 313 313 313 313 313 312 312 312 312 312 312 312 312 311 311 311 311 311 311 311 311 311 311 311 310 310 309 309 308 307 307 306 305
313 312 311 312 312 314 313 311 313 311 311 315 315 318 317 314 314 313 311 312 315 317 312 313 317 316 315 315 317 316 316 319 318 316 314 309 309 311 314 316 316 317 316 316 316 314 313 312 313 313 314 314 313 313 313 313 313 312 312 312 312 312 311 311 312 311 311 311 311 311 310 310 311 311 311 311 310 310 310 309 308 308 307 307 306 305
312 314 314 313 311 313 313 313 314 311 312 316 312 314 316 315 314 313 313 315 313 314 314 313 314 317 318 315 315 314 313 318 317 315 314 310 309 311 314 317 316 316 316 315 315 313 312 312 313 314 314 314 313 313 313 313 313 312 311 312 311 312 311 311 311 311 311 311 311 311 310 310 311 310 310 310 309 309 309 309 308 308 307 307 306 305
311 313 312 313 314 313 313 313 316 315 314 312 311 313 314 315 316 315 315 316 315 316 316 314 314 317 319 317 318 314 314 320 318 315 313 310 309 311 314 316 316 316 315 314 314 312 312 313 313 314 313 314 313 313 313 312 313 312 311 311 311 312 312 311 311 311 311 310 310 310 310 310 310 310 309 309 309 308 308 309 308 308 307 307 306 306
308 307 306 311 313 311 313 312 309 312 311 308 312 317 316 317 317 317 318 316 316 317 317 317 317 316 319 319 319 317 317 319 318 316 316 313 311 312 315 316 315 316 315 314 313 312 313 314 314 314 313 314 314 313 313 313 313 312 312 312 311 311 311 310 311 310 310 310 310 310 310 310 310 309 309 309 309 309 308 308 308 308 308 307 307 306
308 307 309 311 308 308 313 311 306 306 306 308 316 319 316 318 318 317 319 317 316 319 318 317 314 314 318 317 317 319 317 316 317 318 323 322 315 313 315 316 315 316 314 312 312 312 314 314 314 314 314 314 314 314 314 313 313 313 312 312 311 310 310 310 310 310 310 310 310 310 310 310 309 309 309 309 309 309 308 308 308 308 308 307 307 306
314 312 311 310 308 308 312 314 311 309 308 310 316 316 313 318 318 316 319 317 317 319 314 312 312 313 316 316 315 317 317 317 315 313 317 318 314 313 315 316 315 316 314 312 312 313 313 314 314 314 314 314 314 314 314 313 313 313 312 312 312 311 310 310 310 310 310 310 310 310 310 309 309 309 309 309 309 309 309 309 308 308 308 308 307 307
319 317 310 309 311 310 311 313 314 313 312 311 314 315 315 316 317 317 320 318 317 319 313 309 313 314 316 317 318 317 315 314 312 309 311 312 311 313 313 314 315 315 315 313 313 313 313 313 313 314 314 314 314 314 313 313 313 313 313 312 312 312 311 310 310 310 310 310 310 310 310 309 309 309 309 309 309 309 308 308 308 308 308 308 308 308
319 320 315 314 315 312 311 311 315 318 314 310 313 316 316 319 322 321 323 322 320 321 314 308 314 319 319 319 320 318 312 308 309 310 310 310 310 311 312 313 314 314 313 313 312 313 312 313 313 313 314 313 313 313 312 312 313 313 313 313 312 312 311 311 310 309 310 310 310 309 309 309 309 309 309 309 309 308 308 308 308 308 308 308 308 307
316 320 319 314 311 311 311 310 315 320 316 311 314 316 314 318 323 319 321 322 319 320 316 312 317 320 316 315 316 316 311 308 309 308 307 308 309 310 311 313 313 313 312 312 313 313 312 313 313 313 313 313 312 312 312 313 313 313 313 313 313 313 312 312 311 310 309 309 309 309 309 309 308 308 308 308 309 308 308 308 308 308 308 308 307 307
316 320 319 311 308 309 309 308 311 315 315 313 313 315 314 315 318 316 319 320 317 318 319 317 319 318 316 317 317 317 315 312 313 311 306 306 309 309 310 312 312 312 312 311 312 313 312 313 313 313 311 310 310 312 313 313 313 312 311 311 312 312 312 312 311 310 309 308 308 308 308 308 308 308 308 308 309 308 308 308 308 308 307 307 307 306
319 320 318 313 313 310 304 305 308 307 310 315 315 315 313 314 316 316 317 319 318 319 319 319 320 319 319 320 319 321 321 317 320 321 312 307 307 308 310 312 312 311 312 312 312 312 312 313 312 312 310 310 311 312 313 313 313 312 309 308 309 310 310 311 310 310 309 308 308 308 308 308 308 308 307 307 307 307 307 308 308 308 308 308 308 307
318 317 318 315 314 312 307 309 312 307 306 311 314 312 313 315 317 316 316 318 318 319 319 319 319 318 319 319 317 319 320 318 320 322 320 316 311 308 310 312 311 311 312 312 311 310 311 312 311 311 311 312 312 312 312 312 311 310 309 307 308 308 307 308 309 310 310 309 309 308 308 308 307 308 307 307 307 306 307 307 307 308 308 308 308 307
316 316 318 315 312 313 312 313 318 316 310 308 310 311 312 314 316 316 317 318 318 319 320 321 320 319 319 318 317 316 316 319 319 318 320 317 309 308 310 311 311 312 311 310 309 309 310 311 311 311 312 312 311 311 311 311 311 309 308 308 308 307 307 305 306 307 309 309 309 308 308 308 307 307 307 306 306 306 306 306 307 307 307 307 308 307
316 316 316 315 314 315 316 316 319 320 316 312 313 313 312 312 314 315 314 316 317 317 318 320 320 321 321 319 317 314 313 316 316 316 318 313 307 309 311 309 309 310 309 308 308 308 309 310 311 311 311 311 310 310 311 311 311 310 308 308 307 306 305 304 304 304 305 306 306 307 307 307 307 307 306 306 306 306 306 306 306 306 306 306 306 307
317 318 317 317 318 318 318 318 317 317 318 316 314 315 313 312 314 315 314 316 316 315 317 318 318 321 325 323 317 313 314 315 314 313 315 312 309 312 311 309 309 307 306 305 305 306 307 308 309 309 308 309 309 309 309 309 309 308 308 308 307 306 304 303 303 303 304 304 304 304 305 306 306 306 305 305 305 306 306 305 305 305 305 305 305 305
315 316 317 317 318 318 318 317 315 315 317 315 313 315 316 313 313 314 315 316 316 315 315 317 317 319 323 322 317 315 315 313 311 310 311 310 309 309 308 307 306 303 303 303 303 303 304 304 305 306 306 307 307 306 306 306 306 305 305 306 306 305 304 303 303 303 304 304 304 304 304 304 304 304 304 304 304 305 305 305 305 304 305 305 305 304
312 315 317 316 317 318 317 317 314 311 313 314 314 314 314 313 313 314 315 315 316 316 315 317 317 318 321 321 317 314 313 311 310 310 308 306 304 303 303 302 301 301 301 302 301 301 301 301 303 303 303 303 303 304 304 303 303 303 303 303 303 303 304 304 304 304 304 305 305 305 304 304 304 304 304 304 304 305 305 305 305 305 305 304 304 304
313 315 317 316 317 317 317 316 314 311 312 314 315 314 313 313 314 313 314 314 314 314 315 317 316 317 321 323 318 315 315 313 312 309 304 300 298 298 298 297 298 299 299 299 299 299 299 300 300 300 300 300 300 301 301 301 302 302 301 302 302 302 303 303 304 304 304 305 305 305 305 305 304 304 305 305 305 306 305 305 305 306 306 304 303 303
314 315 316 316 317 317 316 315 314 314 314 312 313 315 314 314 314 313 314 313 313 315 315 315 315 315 318 320 317 315 313 310 307 302 298 296 295 295 294 294 295 296 296 297 297 297 298 297 297 298 298 298 298 298 298 299 299 299 300 300 300 301 301 302 303 303 304 304 304 305 305 304 304 304 305 305 305 305 305 305 305 305 305 304 303 303
312 313 315 315 315 315 315 314 314 315 315 313 313 315 314 314 313 313 314 314 315 315 314 315 315 314 314 315 313 308 304 302 299 296 295 294 293 293 293 293 294 294 294 295 295 295 296 296 296 296 296 296 296 297 297 297 297 297 298 298 299 299 300 301 302 302 303 303 304 304 304 304 304 304 304 305 305 304 304 304 304 304 303 303 303 302
310 311 312 313 313 314 313 312 312 312 312 313 313 313 313 313 312 312 313 313 314 314 314 315 314 314 315 311 304 298 297 297 296 294 293 293 292 292 293 293 293 294 294 293 293 293 294 294 294 294 294 295 295 295 296 296 295 295 295 296 296 297 298 299 300 301 301 301 302 302 303 304 304 302 302 302 302 303 302 302 302 302 302 302 301 301
307 308 310 311 310 309 308 308 309 309 309 310 311 311 312 312 312 312 312 312 312 313 313 313 312 314 313 306 298 295 295 295 295 293 292 292 292 292 292 292 293 293 293 293 292 292 293 293 292 292 293 293 293 293 294 294 294 294 294 294 294 295 296 297 298 299 299 300 300 300 300 302 302 301 300 299 300 300 300 300 301 301 301 301 301 300
306 307 308 307 306 305 305 306 307 307 307 308 308 310 310 310 310 310 310 311 311 311 312 311 312 312 306 298 295 295 294 294 294 293 292 292 292 292 292 292 292 292 292 292 292 292 292 292 292 291 292 292 292 292 292 292 292 292 292 293 293 293 294 294 295 296 298 299 300 299 299 299 299 299 298 297 297 298 298 298 299 299 299 300 300 300
305 306 305 304 303 303 303 304 304 305 306 306 306 307 307 308 308 307 307 308 308 308 308 309 312 310 300 293 294 294 294 294 294 293 292 292 292 292 292 292 292 292 292 291 291 291 291 291 291 291 291 291 290 290 290 290 291 291 291 291 291 292 292 292 293 294 295 297 298 299 299 299 299 298 298 296 296 296 296 297 297 298 298 298 298 298
303 302 302 302 301 301 301 302 302 302 303 303 303 303 303 303 304 303 304 305 304 306 307 308 310 305 296 293 293 293 293 293 293 293 293 292 292 292 291 291 291 291 291 291 291 291 291 291 291 291 290 290 290 289 289 289 290 290 290 290 290 290 291 291 292 292 293 294 295 296 297 298 299 298 298 297 296 295 294 295 295 296 296 297 297 297
301 301 300 300 300 300 300 301 300 300 300 299 299 301 301 301 301 301 303 302 301 302 304 305 303 297 293 293 293 292 293 292 292 292 292 292 292 292 291 291 291 291 291 291 291 291 291 290 290 290 290 289 289 289 289 289 289 289 289 289 289 290 290 290 290 291 291 292 293 294 295 296 296 297 298 298 297 295 294 293 294 294 295 295 295 296
299 300 299 299 300 299 299 299 298 297 297 297 298 301 302 302 302 302 300 297 297 298 298 298 296 293 293 293 293 292 293 292 292 292 292 292 293 292 290 291 291 290 290 291 291 290 290 290 289 289 289 289 289 288 288 289 289 289 289 289 289 289 289 289 290 290 290 291 291 292 293 294 295 295 296 297 297 297 295 294 293 293 293 294 294 294
297 297 297 298 298 297 298 298 296 296 297 298 298 298 299 299 299 298 295 293 293 295 295 294 294 293 292 292 292 292 292 292 292 291 291 292 293 291 290 290 290 290 290 290 290 290 289 289 289 288 288 288 288 288 288 288 288 288 288 288 289 289 289 289 289 289 289 290 290 291 292 292 293 294 295 296 297 297 297 296 294 292 292 293 293 293
297 296 296 297 297 297 297 298 297 296 298 300 299 296 296 297 296 295 295 293 291 292 294 294 294 293 293 292 292 291 291 292 292 291 291 292 292 290 290 290 290 290 290 290 290 289 289 288 288 288 288 288 288 288 288 288 288 288 288 288 288 288 288 288 288 288 288 289 289 290 290 290 291 292 293 294 295 296 297 297 296 294 292 291 292 292
296 296 296 296 297 297 296 297 297 297 298 301 300 297 296 296 295 296 297 294 290 289 292 294 294 293 292 292 291 291 291 292 291 291 292 293 291 290 290 290 290 291 290 290 289 289 288 288 288 288 288 287 287 287 287 287 287 287 287 287 287 287 288 288 288 288 287 288 288 288 289 289 289 290 291 292 293 295 296 297 297 296 293 291 291 291
297 297 297 296 297 299 299 299 299 298 299 301 299 295 293 293 294 295 295 294 291 287 289 294 295 294 292 292 291 291 292 292 290 290 292 292 290 290 289 290 290 290 290 290 289 288 288 287 287 287 287 287 287 287 287 287 287 286 286 287 287 287 287 287 287 287 287 287 287 287 288 288 288 289 289 290 291 292 294 295 296 297 295 292 291 290
296 296 297 297 298 299 299 299 299 298 299 300 298 296 293 292 293 294 295 295 292 287 288 293 295 293 292 292 291 291 292 292 290 290 291 290 290 290 289 289 290 290 290 290 289 288 288 287 287 287 287 287 286 286 286 286 286 286 286 286 286 286 286 286 286 286 286 286 286 286 286 287 288 288 288 289 289 290 291 293 295 296 295 294 292 291
296 296 296 297 298 298 298 298 298 297 298 298 297 295 293 291 292 294 296 296 291 287 289 293 293 292 292 291 291 292 292 291 290 290 290 290 290 290 289 289 289 290 290 289 288 288 287 287 286 286 286 286 286 286 286 285 285 285 285 285 285 285 285 285 285 285 285 285 285 285 286 286 286 287 287 287 288 289 290 291 292 294 295 295 293 291
295 295 294 295 296 296 296 296 295 296 298 298 295 292 291 291 292 293 295 293 290 288 289 291 291 291 291 291 291 292 292 291 291 290 290 290 291 290 289 289 289 289 289 288 288 287 287 286 286 286 285 285 285 285 285 285 285 285 285 285 285 285 285 285 285 285 285 285 285 285 285 285 285 286 286 286 287 287 288 290 291 292 293 294 294 292
292 292 292 293 294 293 293 294 293 294 296 296 294 291 290 291 293 294 293 291 289 289 290 290 290 290 290 290 291 291 291 291 291 291 290 291 291 290 289 289 289 289 288 288 287 287 287 286 286 285 285 285 285 284 284 284 284 284 284 284 285 285 284 285 285 285 285 285 285 285 285 285 285 285 285 286 286 286 287 288 289 290 291 293 293 293
293 292 292 294 294 292 292 293 293 294 293 292 292 292 292 293 295 294 291 290 290 290 290 289 289 289 289 289 290 290 291 291 292 291 290 290 291 290 289 288 288 288 288 287 287 286 286 285 285 285 285 285 284 284 284 283 283 283 283 284 284 284 283 284 284 284 285 285 285 285 285 285 285 285 285 285 285 285 286 287 288 289 290 291 292 293
294 293 292 293 293 293 292 292 294 295 293 290 291 292 293 294 293 291 290 289 290 290 289 289 289 289 289 289 289 289 290 291 292 291 290 290 290 289 288 288 287 287 287 286 286 286 285 284 283 283 284 284 284 284 284 283 282 282 283 283 283 282 282 282 283 284 284 284 284 284 284 284 284 284 284 285 285 285 285 285 286 287 288 289 290 291
293 293 292 292 292 292 292 293 293 292 291 290 291 291 291 291 291 291 290 289 289 289 289 289 288 289 289 289 289 289 290 291 291 291 290 290 289 288 287 287 287 286 286 285 285 285 284 283 282 282 283 283 283 283 283 283 282 282 283 283 282 280 280 280 281 281 282 283 284 284 284 284 284 284 284 284 284 284 285 285 285 286 287 287 289 290
291 291 290 291 291 291 291 291 291 290 290 291 291 291 291 291 291 291 290 289 289 289 289 289 289 289 289 288 289 289 290 290 290 290 289 288 287 287 286 286 285 285 284 284 284 283 282 281 281 282 282 282 283 283 282 282 282 282 282 282 281 279 279 279 279 279 280 281 282 283 284 284 284 284 284 284 284 284 284 285 285 285 286 286 287 288
290 290 290 290 290 290 290 290 290 290 290 290 290 290 290 290 290 290 290 289 289 289 289 289 288 288 288 288 288 288 288 288 287 287 286 285 285 285 285 284 284 284 283 283 283 282 281 281 281 281 281 282 283 282 281 281 281 281 281 280 279 278 277 278 278 279 279 281 281 282 282 283 283 283 283 283 283 284 284 284 284 284 285 285 286 287
290 290 290 290 290 290 290 290 290 290 290 290 290 290 290 290 290 290 289 289 289 288 288 288 288 287 287 287 286 285 285 285 284 283 283 283 283 283 283 283 283 282 282 282 282 281 280 280 280 280 279 280 281 281 280 279 280 280 279 278 277 275 275 276 277 277 279 280 281 281 281 281 282 282 283 283 282 283 283 284 284 284 285 285 285 286
290 290 291 291 290 290 290 290 290 290 290 290 290 290 290 290 290 289 288 288 288 287 287 287 287 286 285 285 284 283 283 283 283 282 281 281 282 282 282 281 281 280 280 280 280 280 279 279 278 278 277 279 280 279 278 278 279 279 278 276 275 274 273 274 275 276 278 279 279 280 280 279 279 280 281 281 281 281 282 283 283 283 284 285 285 285
290 290 290 290 290 290 290 290 290 290 289 290 290 290 289 289 288 288 287 287 286 286 285 285 285 285 284 283 282 281 281 281 282 281 280 280 280 280 279 279 278 278 279 278 278 277 277 277 276 275 275 276 277 277 276 277 278 278 276 274 272 272 272 272 274 275 276 278 278 279 279 277 276 276 277 279 279 280 281 282 283 283 283 284 284 285
290 290 290 290 289 290 290 290 290 289 289 289 290 289 288 287 287 286 285 285 284 283 283 282 282 282 283 283 281 280 279 279 279 278 277 277 278 278 277 277 276 275 276 275 275 274 274 274 274 273 273 273 274 273 274 275 276 276 274 272 270 270 270 271 271 272 274 276 276 277 276 275 274 274 275 276 278 278 279 280 281 282 282 283 283 284
Wind_Speed
9 5 3 6 10 15 14 12 15 14 8 5 4 5 8 8 9 10 13 10 0 3 8 11 17 16 15 15 15 27 28 21 27 32 33 34 36 38 41 43 44 47 51 49 46 45 44 43 42 40 39 38 38 37 36 36 36 36 36 38 39 39 41 42 44 44 45 46 46 46 47 47 48 48 50 50 50 50 48 47 47 47 46 45 44 43
5 6 7 12 16 12 9 10 13 10 5 5 4 7 8 7 12 11 12 13 1 1 7 8 17 17 13 15 16 22 20 15 22 27 32 37 37 37 39 44 48 48 48 47 45 45 42 42 40 39 38 36 36 34 33 33 32 33 34 36 38 39 41 43 45 45 46 46 45 44 43 43 45 46 48 49 50 50 49 49 49 49 48 47 46 45
4 6 11 17 11 0 1 5 6 7 6 7 5 6 7 4 9 10 9 11 2 1 7 6 15 16 11 16 18 19 18 20 28 31 36 40 36 39 43 44 45 43 42 43 44 44 41 40 39 38 38 36 34 32 31 30 29 30 32 34 36 38 40 41 43 45 46 46 45 44 42 42 43 45 46 48 48 49 50 51 51 50 49 49 48 46
5 6 13 17 8 1 3 3 6 3 4 6 5 5 8 3 5 8 5 6 4 3 7 9 15 14 10 16 17 21 24 24 31 36 41 44 40 45 49 43 37 37 42 44 43 42 39 38 37 36 36 35 33 32 31 30 29 29 30 31 33 35 37 38 41 43 44 46 46 45 44 43 43 44 46 47 49 51 52 52 51 51 51 50 49 48
9 7 8 9 7 8 8 2 6 3 5 7 8 7 9 9 10 10 5 7 7 5 4 7 14 11 8 11 10 13 15 16 26 30 33 42 47 48 46 39 35 37 41 41 39 36 34 33 32 32 32 32 32 32 31 29 29 28 28 29 31 33 35 37 39 42 44 46 46 46 45 45 46 46 47 48 51 53 53 53 51 51 51 51 51 50
10 8 5 4 6 8 8 6 6 7 8 8 7 11 15 14 12 11 8 7 6 5 4 5 9 10 4 8 8 6 3 7 14 16 23 38 45 40 33 34 37 35 33 33 32 30 29 29 28 28 28 27 28 28 27 27 27 27 27 28 30 32 34 36 38 41 44 45 46 47 47 47 48 48 49 49 50 51 52 51 50 50 50 51 51 51
5 8 7 6 6 7 6 7 7 10 8 8 5 11 15 12 9 11 8 4 2 4 3 4 1 10 5 5 9 8 5 8 10 9 18 29 34 32 29 32 34 30 28 27 26 26 27 26 26 26 25 24 25 25 23 23 23 25 26 27 29 31 32 34 37 40 42 44 45 46 47 47 47 47 47 47 46 47 47 47 48 48 49 51 51 51
3 4 4 5 5 6 5 6 7 10 6 7 5 7 9 8 9 8 4 4 4 3 3 2 5 7 12 5 5 6 6 8 11 12 16 21 26 29 30 30 28 25 25 24 24 24 23 23 25 28 27 27 27 24 20 20 20 22 24 26 28 30 32 34 36 38 40 42 43 44 45 45 46 46 45 44 44 44 45 46 47 48 49 49 50 50
3 4 5 6 5 4 7 6 6 11 6 6 3 5 6 6 6 5 5 5 2 3 3 3 5 2 12 6 3 2 4 7 13 15 14 13 19 26 27 25 21 20 21 22 23 20 19 23 27 29 29 29 28 25 22 20 19 21 22 24 27 29 31 34 36 38 39 40 41 42 43 44 44 44 44 44 44 44 44 45 46 47 47 47 48 49
1 2 5 8 6 5 8 4 7 12 7 4 5 5 4 3 3 5 4 3 3 3 5 5 6 2 12 8 4 4 3 7 11 11 9 9 16 23 23 19 15 15 19 20 20 18 22 26 28 28 27 28 29 27 25 22 20 20 22 24 27 28 31 33 35 37 38 39 39 40 41 42 42 43 45 45 45 45 45 46 46 46 45 45 46 47
3 2 2 5 6 6 4 2 3 8 5 4 6 5 6 4 4 4 1 4 2 6 5 10 12 6 7 6 4 3 4 6 5 5 7 8 13 18 16 14 13 16 20 17 17 21 25 26 25 25 27 30 33 31 29 28 25 21 22 25 27 29 31 33 35 36 37 37 38 38 39 40 41 42 44 45 45 46 46 47 47 46 45 44 45 46
4 2 1 5 7 5 6 3 2 2 4 4 3 3 3 4 3 4 4 3 1 7 5 10 12 9 9 5 1 4 6 4 4 4 8 8 10 13 10 12 16 20 22 19 20 23 23 25 27 28 30 33 36 35 34 33 32 27 23 24 27 29 31 33 34 35 35 36 36 37 38 39 40 42 43 43 44 45 45 45 45 45 45 45 45 45
3 6 4 2 5 7 6 1 3 4 3 4 3 3 0 4 3 2 3 1 4 7 4 5 7 6 12 7 4 10 11 9 7 7 9 9 12 13 12 18 21 20 23 24 23 20 21 27 31 32 34 37 38 37 34 33 33 33 28 25 27 28 30 32 33 34 35 35 34 34 37 38 39 41 41 41 42 43 43 43 44 45 46 46 46 45
3 4 3 2 4 8 9 5 3 2 4 6 5 5 5 2 2 4 3 2 5 6 3 3 5 4 9 6 8 14 13 9 6 11 17 17 17 18 20 24 22 19 21 21 19 19 26 32 33 34 37 39 39 37 33 31 33 34 33 30 27 28 29 31 32 34 34 34 33 34 35 36 38 39 40 40 41 41 42 42 43 44 45 45 45 44
4 6 4 5 3 8 12 10 8 4 4 7 5 5 5 5 4 4 4 5 5 3 2 1 3 4 4 3 6 10 9 8 7 12 17 18 18 18 20 21 20 19 16 13 17 25 32 34 34 36 39 39 37 35 33 34 35 36 35 33 30 29 29 31 32 34 35 34 33 35 36 36 37 38 38 39 40 40 41 42 43 43 43 43 43 42
3 8 6 3 1 10 10 8 6 6 2 4 3 3 3 5 5 3 5 4 2 2 2 2 4 5 4 6 8 8 8 10 11 10 9 12 14 13 17 21 19 15 10 15 25 33 35 36 38 38 38 36 34 34 36 39 39 39 38 35 32 30 30 31 33 34 35 35 35 35 36 37 38 38 38 39 39 40 41 41 42 43 42 42 42 41
3 7 4 1 1 5 4 2 2 3 2 2 3 3 4 3 5 3 5 1 1 4 6 5 7 6 6 10 7 2 3 6 8 7 6 11 13 13 16 15 12 11 14 22 31 36 36 38 39 39 37 34 33 34 35 37 38 40 40 38 35 31 29 31 32 33 34 35 36 37 37 38 39 40 40 40 40 40 41 42 43 43 43 42 42 42
5 8 4 4 4 4 2 2 2 1 3 5 3 4 2 1 2 2 2 1 1 7 7 7 13 11 7 9 4 7 6 6 6 6 6 8 9 9 8 4 10 17 23 29 34 37 38 36 35 35 34 33 34 34 33 32 34 36 37 36 35 33 31 30 31 31 32 34 36 37 38 38 39 41 42 42 42 42 43 43 43 43 43 42 42 42
3 7 6 2 2 3 3 1 3 3 3 5 3 1 2 2 3 1 2 2 4 8 5 7 13 11 7 11 7 7 9 8 7 7 6 7 8 5 4 11 19 26 31 35 37 36 34 33 31 30 30 32 33 32 31 31 31 31 32 32 30 30 31 31 30 29 30 32 34 36 38 38 40 41 42 43 44 45 46 46 45 44 44 44 43 43
1 2 5 1 2 2 3 2 2 3 1 2 1 3 1 2 2 1 2 2 4 8 7 7 10 8 7 10 6 2 5 7 7 6 6 7 7 7 11 17 24 30 35 36 36 35 35 34 30 27 28 30 30 29 29 29 30 30 31 30 27 25 28 30 31 30 30 31 33 35 36 38 40 41 42 44 45 46 47 47 47 47 47 46 45 45
2 1 4 2 2 4 3 2 5 4 3 1 1 3 3 2 1 2 2 1 2 6 7 7 9 7 5 6 3 3 2 4 5 5 6 7 11 17 20 21 27 33 36 34 34 35 34 31 27 25 25 26 27 28 27 28 29 28 30 31 29 26 26 26 28 30 32 34 35 36 36 36 38 39 42 44 45 47 48 49 49 49 50 50 49 49
2 2 2 3 4 6 7 6 7 7 6 5 5 5 6 5 2 4 5 4 3 5 6 7 9 7 4 7 7 1 0 3 4 3 6 12 20 27 26 26 29 30 29 28 28 26 24 23 22 22 22 24 26 27 26 25 26 26 27 29 29 28 27 25 24 24 27 31 34 37 38 37 36 37 40 42 44 45 47 49 51 51 51 52 53 53
1 2 2 5 7 9 11 6 5 5 4 3 3 4 3 4 5 6 8 5 4 5 5 7 10 7 5 9 12 10 9 8 4 4 8 13 17 20 22 23 22 22 23 23 23 22 21 21 21 21 22 23 24 25 25 24 24 26 27 26 27 28 27 26 25 23 23 25 28 31 33 35 35 36 37 40 42 44 44 47 49 51 52 53 54 56
2 2 2 5 5 7 10 5 2 1 3 1 3 4 4 5 6 8 6 3 4 6 6 8 9 5 4 8 10 10 12 12 8 5 4 9 20 24 22 23 24 24 23 22 22 23 23 23 22 23 25 25 25 25 25 25 25 26 27 27 27 27 27 28 27 26 25 25 25 25 27 30 33 35 38 40 42 44 45 45 45 48 51 54 55 56
1 1 1 2 4 5 7 5 1 1 1 2 5 6 7 8 9 8 4 2 4 8 10 10 10 5 2 5 6 7 9 11 12 12 17 20 21 21 22 26 26 25 25 25 26 26 26 27 27 27 27 27 28 28 27 27 27 27 27 28 28 28 27 27 28 29 29 29 28 27 27 29 31 34 37 40 42 45 46 47 46 46 49 53 56 56
2 2 3 4 6 7 8 8 4 1 2 2 3 5 7 9 11 9 5 5 7 9 11 11 10 8 5 5 7 8 9 10 13 21 25 22 19 21 23 25 25 26 28 28 29 28 28 29 30 30 30 30 29 30 30 30 29 29 28 28 30 30 29 28 27 28 30 31 32 32 32 32 32 33 35 37 39 41 42 44 46 47 48 51 54 56
1 2 5 8 10 10 11 11 9 6 4 5 6 7 7 7 10 8 6 8 10 10 11 12 12 13 12 9 7 8 11 12 12 15 18 19 21 23 23 24 26 27 28 28 30 31 30 30 31 31 31 31 31 30 31 32 33 33 32 31 31 32 33 33 31 29 29 29 31 32 33 34 33 33 33 34 35 36 38 40 44 47 48 50 53 55
1 3 6 11 12 11 12 13 12 12 11 10 10 10 10 9 9 9 10 12 12 11 12 11 12 16 13 6 8 11 11 10 9 11 15 18 20 22 24 26 28 29 30 31 32 32 32 32 32 33 32 32 32 32 31 32 34 35 36 36 34 34 34 35 36 35 33 31 30 29 30 31 32 31 30 30 31 32 36 39 42 46 48 50 52 54
1 4 5 8 9 7 9 12 11 11 10 9 8 9 10 10 12 13 15 14 12 11 11 11 14 18 12 4 7 8 8 8 8 10 14 18 21 23 25 26 28 30 31 33 34 33 33 33 34 34 34 34 34 35 35 35 35 36 38 39 38 37 36 36 37 37 37 36 35 32 29 29 29 29 28 28 30 32 34 38 42 45 47 49 51 52
2 3 2 4 7 8 10 10 10 11 12 11 11 10 10 11 15 16 15 13 12 15 16 16 18 16 6 5 4 4 5 5 5 7 13 17 21 23 24 26 26 27 29 31 32 33 33 33 34 35 36 36 37 38 39 39 39 39 40 40 40 39 38 38 38 37 37 37 37 36 34 31 29 29 28 27 28 30 32 36 39 42 45 47 49 50
3 3 6 7 7 10 13 12 12 12 12 13 13 11 12 16 17 17 15 13 15 18 16 16 17 10 2 5 3 4 5 5 5 6 8 13 17 20 22 24 24 25 26 27 28 30 32 33 34 35 36 37 38 39 40 41 41 41 41 41 41 40 40 39 38 38 38 37 36 36 35 34 32 30 29 27 26 26 29 32 36 40 43 45 47 49
2 2 6 7 6 9 13 15 14 12 11 12 14 16 19 19 16 15 14 11 11 11 10 11 11 4 2 2 3 5 6 6 6 6 5 7 13 17 19 22 23 23 24 25 26 28 30 32 33 35 35 36 37 38 39 40 41 41 41 42 42 41 40 39 38 38 37 37 38 37 36 35 35 34 33 30 27 25 26 29 33 37 40 43 45 47
3 3 4 5 5 8 14 14 10 9 9 10 11 13 16 16 14 15 11 4 2 3 4 5 3 0 1 3 2 4 5 5 7 9 7 6 10 15 18 20 21 22 23 25 25 27 28 30 32 34 34 35 35 35 36 37 38 39 40 40 41 41 40 40 39 38 38 38 38 38 38 38 37 37 37 36 33 29 26 27 30 33 36 40 42 45
7 6 5 5 4 8 13 9 6 6 10 10 5 3 5 6 7 7 2 4 3 1 2 1 1 1 2 3 2 4 5 6 9 11 10 8 8 15 20 20 21 22 23 23 24 26 28 29 31 32 32 32 33 33 33 34 35 37 38 39 40 40 41 41 40 39 38 38 38 38 39 39 39 38 37 37 36 35 31 28 28 29 32 35 39 43
8 6 4 3 4 6 6 5 5 9 7 3 2 1 2 3 5 5 3 3 1 2 4 3 3 2 2 5 6 8 10 11 11 12 12 10 8 14 20 20 20 21 22 23 23 25 27 28 29 30 30 30 31 31 32 33 34 35 37 37 38 39 40 41 41 41 40 39 39 38 39 40 41 40 39 37 36 35 35 32 29 29 30 32 36 39
8 6 2 2 4 3 1 3 7 6 1 0 2 1 3 4 6 6 2 1 2 2 2 3 4 4 5 8 10 11 14 14 12 13 11 9 6 13 19 20 21 20 21 22 23 25 27 27 27 28 28 28 29 30 31 32 33 35 36 36 37 38 40 41 42 43 43 42 41 40 40 41 41 41 41 39 37 36 35 34 32 30 29 30 33 36
8 5 3 3 5 4 3 6 6 6 6 5 3 1 2 2 2 1 0 2 4 3 3 4 5 6 7 10 14 14 14 11 10 11 8 9 7 16 19 21 22 21 22 23 23 25 27 26 26 26 26 28 28 29 29 31 32 33 35 36 36 37 39 40 41 43 44 44 43 42 41 41 42 42 42 41 40 38 36 35 34 31 28 29 31 34
9 7 5 4 5 5 4 5 5 6 7 3 3 4 3 3 4 3 1 2 3 2 4 6 6 7 7 9 13 13 9 6 5 7 8 10 12 18 21 23 23 22 24 24 25 27 28 27 27 26 27 28 28 28 29 30 31 32 33 35 35 36 37 38 40 41 43 44 44 43 42 41 42 42 42 42 41 40 38 36 34 32 29 28 29 31
6 6 6 5 5 4 4 5 5 6 5 2 4 6 5 5 5 3 1 2 2 3 6 8 7 7 8 11 13 8 3 3 5 8 13 15 16 18 22 25 25 24 25 26 27 29 30 29 29 28 28 29 29 29 29 29 30 31 32 33 34 35 36 37 38 40 42 44 44 44 43 42 41 42 43 43 42 41 40 38 36 34 31 28 27 28
2 1 4 5 5 6 6 5 4 4 4 3 6 6 5 3 3 1 6 4 3 2 7 12 11 11 12 15 13 6 4 6 9 12 20 22 20 19 22 26 27 27 27 28 30 31 32 31 30 30 31 30 30 30 30 30 31 31 32 33 33 34 35 36 38 40 42 44 45 45 44 42 42 42 43 44 44 43 41 39 38 36 34 31 28 27
2 1 2 4 5 8 9 7 5 4 5 5 6 5 4 1 2 3 8 3 2 9 10 11 16 15 15 16 13 9 14 21 21 22 25 25 24 23 24 27 28 27 28 30 32 33 33 32 31 32 33 33 32 32 32 32 33 34 34 34 35 35 35 36 38 40 42 45 46 47 47 45 44 44 44 45 46 45 43 41 39 39 38 35 31 28
2 1 1 3 4 4 5 5 5 5 5 4 5 4 3 1 1 6 6 7 13 17 16 12 15 15 16 19 18 19 26 31 30 29 28 27 27 28 28 30 29 29 31 33 34 34 34 34 34 34 35 35 35 35 35 35 35 36 36 37 38 38 37 38 40 41 43 46 48 49 49 48 47 46 46 47 47 47 46 43 40 40 39 38 36 33
4 2 3 4 3 1 2 4 5 5 3 4 3 3 1 4 5 9 11 17 22 21 19 18 18 18 20 22 24 26 31 33 32 31 30 30 30 29 30 33 32 33 35 36 36 37 35 34 35 36 37 37 37 38 38 38 38 38 39 40 40 39 39 41 42 44 46 48 50 51 52 52 51 50 49 49 49 49 49 46 43 41 40 40 39 36
4 4 4 4 3 3 4 4 5 4 3 4 4 3 6 10 18 22 20 21 25 27 24 21 21 24 27 26 26 28 30 32 33 32 31 31 31 31 33 35 35 37 38 38 39 39 37 36 37 38 39 40 39 39 39 39 41 42 43 44 42 40 41 43 44 45 48 50 52 53 54 54 54 53 52 51 51 51 50 48 45 43 41 40 40 38
4 4 4 4 4 3 4 7 8 5 4 8 12 16 21 28 35 35 28 23 25 29 27 23 25 30 31 30 29 28 29 31 32 32 32 31 32 33 36 38 38 39 39 40 41 41 39 38 39 40 42 43 42 42 41 41 42 44 46 46 44 43 45 47 47 48 49 51 53 55 56 57 57 56 55 54 52 52 51 49 47 45 43 41 40 40
7 8 3 2 6 6 6 14 18 13 14 23 29 32 33 35 36 36 31 26 27 30 30 28 29 31 31 30 29 27 27 29 29 30 31 31 33 36 39 41 42 41 41 42 43 43 41 40 41 43 45 47 47 45 44 43 44 46 47 48 47 47 49 51 51 51 52 54 55 56 57 59 59 59 58 56 54 53 52 50 48 47 45 43 41 41
11 13 7 4 8 9 8 13 15 14 19 26 29 31 34 35 35 35 33 31 30 30 29 28 29 30 29 27 24 22 24 25 26 29 31 32 35 39 41 43 44 44 45 46 46 45 44 43 45 46 48 50 51 49 47 47 48 49 50 50 49 49 50 52 53 55 57 59 60 60 59 60 60 61 60 57 55 53 52 51 49 47 46 46 44 42
7 7 6 7 10 10 11 15 18 20 25 27 27 29 32 35 36 34 30 28 27 26 26 26 26 26 24 22 19 20 23 26 27 30 32 35 39 42 43 44 45 46 47 48 47 47 46 46 47 48 49 52 54 53 51 52 53 54 53 53 52 51 51 53 55 57 59 60 61 62 63 61 59 59 59 57 55 52 51 52 50 47 47 47 45 43
7 3 3 6 7 10 13 16 18 19 19 22 27 29 28 28 28 26 23 21 21 22 24 24 23 22 22 22 22 23 26 30 33 34 35 38 42 44 45 46 46 47 48 49 49 48 47 48 49 48 49 53 55 56 56 56 58 58 57 55 54 53 54 56 58 59 61 61 61 62 63 60 57 56 55 55 53 52 51 51 50 48 47 47 46 45
8 7 6 5 6 9 10 12 13 11 8 14 23 23 19 18 19 19 20 21 21 21 23 24 26 26 25 25 26 28 30 34 36 36 37 39 43 45 46 46 46 48 49 50 49 49 49 50 49 49 51 55 56 57 58 60 62 62 60 57 55 55 56 58 59 61 62 62 62 62 60 57 54 52 51 51 51 51 52 52 51 49 48 47 47 45
12 10 9 8 8 11 16 21 21 14 10 16 21 18 16 17 18 18 19 20 21 22 23 24 27 30 31 32 32 31 31 34 36 36 37 40 44 46 46 46 46 47 49 49 48 49 50 50 51 51 53 56 57 58 61 63 65 65 63 59 57 55 56 56 56 58 60 62 61 60 58 55 53 52 51 51 50 50 50 51 52 51 49 47 45 44
Wind_Direction
170 172 170 189 211 224 222 197 210 228 235 257 259 253 258 265 266 261 268 270 176 282 254 246 264 266 266 269 265 270 274 275 279 282 278 274 272 271 272 273 273 272 276 283 286 286 285 284 284 283 281 279 277 275 273 270 267 265 262 258 256 252 248 244 242 241 241 240 238 236 236 236 236 235 235 235 235 234 235 235 236 235 235 234 234 234
169 197 210 212 217 222 215 202 218 238 270 274 254 266 264 253 266 267 273 279 262 267 258 241 267 270 264 270 267 267 270 259 260 268 273 273 273 273 273 273 273 274 278 282 284 287 288 288 289 288 286 284 282 281 278 275 273 269 264 260 258 253 249 246 244 243 242 242 242 241 242 240 238 236 236 236 236 234 234 234 234 234 234 234 234 233
209 222 227 225 227 353 108 175 202 227 239 251 249 275 274 254 277 274 264 283 321 220 273 273 272 271 259 263 263 257 255 251 251 254 263 270 273 274 271 270 272 277 280 282 285 290 291 291 292 291 291 290 289 288 284 280 276 269 264 260 257 253 251 249 247 246 245 245 245 245 244 242 240 238 237 237 237 235 234 233 233 233 233 233 234 233
223 232 233 232 233 271 262 125 122 204 234 232 225 249 265 253 276 269 261 315 336 237 275 297 282 274 251 253 257 254 251 252 255 255 259 265 266 267 267 268 272 278 282 285 290 294 296 296 296 296 295 294 292 289 287 283 277 271 265 260 256 254 252 250 248 248 247 245 244 243 242 241 240 239 237 236 236 234 233 233 233 233 233 233 234 233
233 236 229 221 207 212 239 192 140 218 253 224 211 220 251 250 246 256 289 340 326 287 308 323 298 285 221 225 248 257 253 248 252 254 258 261 260 262 267 271 274 276 281 288 295 302 306 306 305 304 301 298 295 293 291 287 282 277 272 265 259 255 252 250 249 248 246 244 241 240 238 237 236 235 235 234 233 232 232 232 233 233 233 233 234 233
246 249 224 168 189 197 213 232 195 204 248 251 217 210 235 249 254 264 293 339 340 308 338 18 318 297 190 185 235 259 262 245 245 247 250 253 257 261 269 274 277 280 285 291 299 309 315 316 315 313 310 308 306 303 298 291 285 279 273 267 260 256 254 251 250 248 246 244 242 239 237 236 234 233 233 233 232 232 231 232 232 232 233 233 233 233
244 245 226 186 194 181 188 245 217 193 237 275 231 207 225 242 255 263 277 312 293 256 287 71 344 289 283 185 228 237 213 241 246 239 245 251 258 266 271 275 280 287 293 298 307 315 319 325 332 334 335 334 329 320 304 289 282 277 272 266 260 256 254 252 250 249 247 245 244 242 241 241 240 239 239 237 236 235 235 234 234 233 233 233 233 234
193 222 228 199 187 159 178 245 217 177 206 269 231 190 204 219 231 235 228 225 238 271 303 128 144 276 287 256 217 209 189 240 253 243 250 254 258 265 269 275 282 292 299 309 316 320 331 348 356 356 357 356 350 340 318 294 281 276 272 266 261 256 254 252 250 248 247 247 245 244 243 242 243 244 244 243 240 238 236 235 235 235 234 234 234 234
151 189 210 180 152 170 206 228 176 156 191 252 197 149 168 191 200 171 167 204 251 346 304 218 143 244 280 280 71 113 187 237 250 245 252 259 263 266 268 274 287 299 304 311 317 328 354 5 1 357 357 357 359 358 344 319 292 276 269 263 259 255 252 250 249 248 247 247 246 245 244 243 243 243 243 243 242 240 238 235 235 235 235 236 236 235
136 194 193 155 146 211 218 213 155 162 200 225 119 93 83 85 90 111 149 145 78 310 253 197 159 211 278 280 82 79 200 227 247 254 259 271 276 271 269 278 294 307 312 316 324 343 3 1 356 357 358 0 3 5 1 346 317 286 269 261 256 252 251 249 248 248 247 246 244 244 243 243 242 241 240 240 240 239 239 237 236 236 236 236 236 236
250 76 97 166 194 203 164 100 163 171 176 130 102 55 36 32 37 59 53 91 84 278 234 185 181 180 276 286 129 165 225 216 235 278 282 284 275 267 274 292 305 316 316 318 330 345 358 3 5 9 8 7 6 6 5 1 347 317 285 269 260 255 253 251 249 249 248 246 244 243 243 242 242 241 239 239 239 239 238 238 237 237 238 238 238 237
256 159 189 216 206 161 107 81 3 83 129 129 102 67 25 333 10 31 351 56 172 263 239 188 181 179 234 261 144 253 271 241 213 255 281 287 275 270 289 306 309 314 311 319 342 354 3 9 12 12 8 5 4 3 4 4 359 344 316 288 272 262 255 252 251 250 249 246 244 244 243 242 241 241 240 240 241 241 240 239 239 239 239 239 239 239
270 214 217 209 198 176 144 125 342 11 103 127 115 131 219 306 341 344 304 103 214 256 263 189 165 200 243 253 267 268 273 257 225 225 249 261 267 274 298 303 300 301 304 323 347 5 13 9 8 8 4 3 1 359 1 2 359 354 340 316 293 275 263 257 254 253 250 247 246 245 243 242 241 241 242 242 243 244 244 243 242 240 240 240 239 239
283 253 174 130 242 191 163 174 236 254 173 162 152 162 179 208 249 263 255 258 261 265 277 190 165 243 275 274 242 244 257 262 242 244 250 251 256 270 289 293 291 293 306 328 350 6 9 6 5 3 359 358 356 354 357 359 356 352 346 335 316 296 278 266 260 257 253 250 249 248 246 244 243 242 243 243 243 244 245 244 244 244 244 244 244 244
264 290 194 169 227 175 176 206 203 146 155 186 163 145 176 187 196 231 234 246 265 278 296 236 186 221 258 270 230 231 262 289 273 256 255 251 254 269 282 281 283 297 320 356 9 7 4 1 359 356 354 354 354 353 353 353 351 346 341 336 328 317 298 280 268 260 256 254 252 249 248 247 245 245 244 244 245 245 245 246 246 247 247 248 248 249
232 272 237 205 144 159 182 221 179 114 134 215 129 118 221 203 178 236 257 231 217 321 284 230 228 231 238 273 266 252 269 279 271 265 272 273 271 274 272 273 284 305 347 9 4 4 1 356 352 351 351 352 353 353 351 349 346 341 336 331 328 323 311 295 279 266 258 256 255 253 251 249 248 246 245 245 245 244 245 246 247 248 249 250 251 251
252 271 246 85 293 182 186 271 151 145 210 193 127 184 235 178 152 237 281 298 100 266 259 244 259 276 293 287 288 345 314 295 296 295 293 289 286 275 269 279 307 335 358 358 357 358 354 351 349 349 352 355 355 354 350 347 342 338 335 330 325 321 315 306 290 275 265 258 257 257 255 252 250 249 248 247 247 247 247 247 248 249 250 251 251 252
250 274 255 150 221 259 359 350 316 33 125 134 175 222 229 121 132 161 263 334 268 254 257 259 264 275 289 281 326 28 350 336 331 311 303 301 288 265 261 329 358 351 351 349 349 349 348 349 351 351 352 352 350 349 346 343 337 335 336 333 326 318 313 308 296 283 275 267 261 260 259 258 256 254 253 251 251 250 250 250 250 250 250 250 251 252
240 267 280 120 185 291 12 22 300 345 103 141 211 281 92 217 251 140 175 230 238 248 249 243 256 266 262 261 290 323 307 314 322 310 313 302 279 275 345 357 349 348 347 345 347 349 349 351 352 352 347 342 343 343 343 341 337 336 339 339 333 321 310 301 291 286 284 279 271 266 263 262 261 260 259 257 255 253 253 253 253 253 252 252 251 252
33 246 272 43 86 321 2 96 199 289 323 102 336 330 53 186 228 179 177 201 232 251 257 241 247 253 246 262 294 311 265 287 308 312 303 282 283 316 334 339 345 349 348 347 351 351 349 350 352 351 344 339 339 339 338 337 335 335 338 341 341 332 318 302 289 285 286 284 278 273 269 266 265 264 263 261 259 258 258 258 257 256 256 255 254 253
58 212 245 273 335 315 302 186 180 212 230 169 258 271 258 227 250 269 234 182 225 256 260 251 247 243 246 275 298 126 185 285 296 309 310 307 315 316 320 337 350 352 351 352 354 350 348 349 347 343 338 333 333 335 336 334 330 328 331 337 344 346 339 321 302 291 286 282 278 274 273 272 270 269 268 266 264 264 263 262 261 260 259 258 257 256
198 207 219 257 282 273 251 218 196 194 183 186 202 212 227 224 237 276 257 215 211 250 257 258 260 255 260 290 297 295 131 288 292 326 322 308 310 317 331 349 355 355 357 2 5 4 359 353 347 342 337 333 333 337 341 341 338 335 333 334 340 348 350 343 330 316 303 294 287 281 278 277 275 274 272 271 270 270 269 268 266 263 262 262 261 259
166 122 183 238 248 257 257 236 200 186 140 144 209 198 206 190 174 226 248 240 232 244 254 261 262 252 238 271 287 290 281 279 275 270 283 304 331 352 1 5 10 15 19 17 17 17 12 5 357 348 344 342 341 341 344 348 350 350 349 345 343 347 348 346 342 334 323 314 306 298 290 284 282 282 280 278 276 275 275 275 272 268 266 265 263 261
104 119 229 247 251 272 275 257 176 89 73 57 253 220 209 211 212 228 240 248 249 248 253 260 259 243 222 257 274 290 298 302 299 276 292 11 32 40 32 24 27 27 25 21 17 16 14 10 4 358 356 356 355 353 352 352 353 353 354 354 351 350 347 343 340 334 327 320 313 307 298 291 289 290 288 287 286 284 283 280 277 275 272 268 264 262
192 185 186 272 278 284 285 271 244 32 106 227 247 237 232 238 251 265 270 268 256 240 239 253 260 250 254 287 292 298 304 307 321 5 49 55 46 42 34 30 29 24 22 20 17 17 16 14 15 13 12 9 6 4 1 358 357 356 355 355 354 352 348 342 337 333 329 321 313 306 298 292 290 290 289 289 288 288 287 285 281 279 275 270 266 264
231 229 204 244 262 260 269 268 265 267 175 198 251 242 235 230 234 252 266 254 253 239 232 246 265 268 269 288 293 305 326 336 351 19 43 50 38 35 34 30 28 26 25 23 20 20 20 19 20 18 16 14 11 9 6 4 2 0 359 358 356 354 351 346 340 334 328 323 317 311 306 301 296 292 290 289 287 286 287 286 282 279 274 270 268 266
207 267 237 239 250 253 265 273 288 303 270 262 275 256 250 242 229 232 243 247 257 261 251 252 265 273 272 282 314 350 4 6 5 14 26 31 28 28 28 27 28 27 25 24 23 22 20 19 17 15 13 12 10 9 7 5 3 2 1 360 358 357 355 353 350 344 336 327 319 312 309 306 302 297 292 288 287 287 286 283 280 277 274 271 269 266
147 298 260 251 257 260 276 289 300 307 292 282 286 277 274 275 259 249 249 254 261 264 263 264 273 278 278 310 12 17 11 7 9 6 9 16 20 21 23 23 23 22 20 18 17 16 15 13 11 9 7 6 5 4 3 1 360 359 359 359 358 359 358 357 356 355 351 344 334 322 311 303 299 298 294 290 288 287 285 283 280 278 275 272 269 266
174 267 260 268 287 294 304 307 305 305 299 293 293 287 285 283 274 265 261 266 273 269 275 287 288 287 294 12 41 23 8 3 3 1 5 13 17 17 19 18 16 15 13 10 8 7 7 6 4 3 2 1 0 359 357 356 355 354 354 354 355 355 356 356 356 356 357 355 351 344 331 314 301 297 296 294 291 289 287 285 282 279 276 272 270 268
232 270 297 306 317 313 302 296 295 297 296 292 286 283 285 278 270 269 271 276 278 271 275 282 279 280 306 40 33 13 13 356 344 359 12 16 16 15 14 13 11 8 6 4 2 360 359 359 359 358 358 357 356 354 353 352 351 350 350 349 350 351 351 351 350 351 353 354 354 352 347 337 322 309 301 298 296 293 290 287 284 280 276 272 270 267
272 308 339 337 319 301 291 286 286 286 286 290 292 289 280 272 269 272 276 274 271 271 275 276 271 271 53 57 342 333 352 349 347 5 19 19 14 12 10 5 1 360 359 358 356 354 354 353 353 354 354 353 351 350 349 348 348 347 346 346 347 347 347 346 345 345 346 347 349 349 350 350 345 335 322 311 303 298 294 291 286 282 277 273 269 266
302 306 327 323 299 288 289 288 289 294 294 289 283 275 270 268 268 269 270 271 272 277 285 280 271 271 51 20 322 330 343 352 349 341 353 14 13 10 5 357 353 352 351 349 349 350 349 348 348 348 348 347 346 347 346 345 344 344 344 344 344 343 343 343 342 342 341 341 341 343 345 348 350 349 345 335 323 311 304 298 290 284 279 274 270 266
257 268 285 286 279 275 278 284 305 324 306 281 265 259 258 261 266 265 268 307 333 269 276 280 265 99 308 294 327 332 332 343 337 327 318 333 359 1 355 349 346 345 345 344 343 343 343 343 343 341 341 341 342 343 343 342 342 341 341 341 340 340 341 341 341 340 338 338 338 339 340 342 343 346 348 346 341 332 320 307 296 289 282 277 273 268
243 248 249 248 256 268 275 297 343 305 272 269 267 240 232 248 263 262 254 57 49 124 109 118 152 99 298 280 292 292 288 295 310 316 305 289 323 344 343 341 339 339 338 337 335 336 337 337 336 335 336 336 337 338 339 339 338 336 336 337 337 338 338 339 339 339 338 337 337 337 337 338 339 341 342 343 343 342 336 323 308 297 288 281 274 268
243 238 235 226 238 268 290 327 307 267 253 264 315 32 89 114 103 100 103 87 75 101 101 131 203 213 250 268 270 271 276 279 291 306 294 263 282 327 333 332 330 329 329 329 329 331 332 333 332 332 331 330 331 333 334 334 333 332 331 332 333 334 335 335 336 337 338 337 337 337 337 336 336 337 338 338 339 340 341 336 325 310 297 286 277 271
234 229 218 214 235 259 261 222 249 267 314 244 255 9 54 88 91 83 74 203 206 194 161 186 218 215 227 258 269 278 288 289 295 304 283 234 267 323 326 322 319 317 318 320 321 323 326 328 327 325 324 324 325 327 329 329 328 327 327 328 329 330 330 331 332 333 334 335 336 336 335 335 335 334 334 335 334 335 337 338 335 325 308 292 282 275
216 218 206 222 237 234 222 225 243 293 307 272 249 336 82 138 135 92 319 200 194 228 229 198 216 227 223 244 261 275 291 295 302 306 263 216 274 320 320 315 313 309 309 311 313 316 320 321 319 317 317 318 320 323 325 324 323 323 322 324 326 326 326 327 328 329 329 330 332 332 332 333 333 332 331 331 330 330 331 333 334 332 321 304 291 281
206 212 205 231 244 231 250 263 261 278 283 259 241 251 230 208 205 191 271 208 168 284 263 199 209 241 226 239 259 269 287 297 301 303 266 245 284 314 317 312 307 304 304 306 307 311 315 316 315 313 313 314 317 319 320 319 319 319 319 321 323 323 323 324 325 325 325 325 326 327 327 328 328 329 329 328 327 326 326 327 329 330 326 314 301 290
191 211 210 232 255 245 260 273 262 262 267 228 224 237 235 236 213 164 318 243 139 322 265 200 204 246 230 235 249 245 257 290 276 287 289 282 287 304 313 311 305 301 301 303 305 309 313 314 312 311 310 311 311 313 314 315 314 314 315 317 319 319 321 322 322 322 322 322 322 322 322 323 323 324 324 324 323 322 321 321 323 324 324 318 308 298
74 221 212 220 246 252 254 259 257 265 270 225 212 231 255 238 165 106 297 263 145 288 247 199 209 246 243 242 245 216 196 240 249 279 296 294 286 292 308 310 304 299 298 300 304 307 310 311 309 307 307 306 307 308 309 309 309 309 310 312 313 314 316 318 317 318 318 319 319 319 319 320 320 319 319 319 318 318 317 317 318 318 319 318 312 303
348 309 223 209 231 243 247 258 263 261 262 230 203 224 277 350 102 253 268 267 342 310 287 221 218 246 260 255 247 225 232 246 258 276 290 291 280 281 298 305 300 294 293 296 301 304 306 307 305 304 304 304 303 303 304 305 306 306 307 309 309 309 312 312 312 313 314 314 314 316 317 318 318 317 315 314 314 314 313 313 314 313 314 315 312 305
245 295 276 227 227 233 236 251 265 267 260 222 208 256 304 60 215 247 267 317 319 310 304 272 245 257 273 269 263 258 255 258 265 273 282 285 278 280 295 302 296 290 289 291 295 300 301 302 302 302 302 302 301 301 301 302 302 303 305 305 305 307 309 309 309 310 311 310 311 312 314 315 316 315 313 312 311 310 309 310 310 309 309 311 310 305
220 237 266 226 207 248 252 242 253 266 244 148 158 295 268 178 238 281 303 313 310 303 296 284 272 277 283 281 280 278 272 268 267 271 281 283 277 280 293 299 295 290 289 291 294 298 299 298 299 299 299 299 298 299 300 300 300 300 301 301 302 305 306 305 307 308 308 307 308 309 311 312 313 313 312 310 309 308 306 306 306 306 305 305 306 303
228 215 242 236 215 227 230 224 224 228 195 144 156 239 254 266 286 295 299 299 300 299 291 280 280 290 295 292 288 284 278 271 268 273 279 278 276 282 292 295 293 290 290 292 295 298 299 298 298 298 297 296 296 296 297 297 298 299 299 300 302 303 301 301 303 304 304 305 305 306 308 309 310 310 310 309 307 305 303 302 302 301 301 301 301 299
232 209 231 257 256 221 203 243 258 260 277 284 278 275 280 286 290 292 293 292 292 294 290 283 287 298 302 300 293 285 278 272 270 273 275 275 279 286 292 293 292 291 293 295 296 298 298 298 297 296 296 296 296 296 295 294 294 295 295 298 300 300 300 300 302 302 302 302 303 305 306 307 307 307 307 306 305 303 300 299 298 297 296 296 295 294
268 265 264 283 277 270 254 259 266 277 283 281 281 281 282 286 288 291 293 292 290 291 292 292 295 299 302 300 294 283 275 272 271 273 276 280 285 290 293 294 294 295 297 298 299 300 300 298 296 295 295 296 297 296 294 293 292 292 293 295 297 297 298 300 301 301 301 301 302 303 304 305 305 305 304 303 302 300 298 296 294 292 292 290 289 289
261 256 245 245 265 269 265 260 261 266 271 273 276 280 282 284 287 289 291 291 292 294 296 296 297 297 297 295 289 281 276 276 277 280 284 289 292 293 295 295 296 297 299 299 300 301 299 298 297 296 295 296 296 296 294 293 293 293 294 295 295 295 296 297 298 298 299 301 302 302 302 303 302 302 302 300 299 297 295 293 291 288 287 286 285 285
255 243 223 233 247 249 256 264 267 267 269 271 273 276 279 283 286 289 291 292 293 295 295 295 295 294 293 290 286 286 286 286 289 294 297 298 297 296 296 296 297 298 298 299 299 298 297 296 295 295 294 294 295 295 295 294 294 294 294 294 295 295 295 295 296 296 297 299 300 301 301 301 300 299 299 298 296 294 292 290 288 285 283 283 282 281
258 261 215 221 246 256 259 267 273 274 272 271 272 275 278 282 286 289 293 293 294 295 295 295 294 292 291 293 296 300 300 297 297 301 302 300 298 297 296 297 297 297 297 297 297 296 295 294 293 293 293 292 293 294 294 293 293 294 294 294 295 295 296 296 296 297 297 298 298 298 298 298 297 296 295 294 293 290 288 286 284 282 280 280 279 279
250 259 248 237 256 265 263 266 270 273 273 274 278 284 288 287 287 291 294 297 299 301 301 300 298 295 294 298 304 307 306 303 302 304 303 300 298 298 297 297 297 296 297 297 296 295 294 293 293 292 291 291 291 292 291 291 292 292 293 295 296 296 296 297 297 297 297 297 296 296 296 295 294 293 291 290 289 287 285 284 281 279 277 276 276 276
238 245 248 247 253 260 268 273 273 272 272 275 282 292 296 293 294 298 301 303 305 306 307 308 307 305 304 305 309 311 310 308 307 306 302 300 300 300 299 298 297 297 297 297 297 296 295 294 293 292 290 290 291 290 290 290 291 292 293 295 296 296 296 296 296 295 295 295 294 294 294 292 290 289 289 288 286 283 282 281 279 277 276 274 274 273